Retour au catalogue

FENGYUN 1C DEB

ActifSSO
NORAD 30077·DEBRIS·🇨🇳 China

Lancé May 10, 1999 depuis Taiyuan Satellite Launch Center

Loading…

Prochains Passages (prochaines 24 heures)

TLE

FraisSource: Space-Track

Époque: Sep 14, 2026, 07:27 UTC

1 30077U 99025QE  26257.31085716 -.00000106  00000-0 -37798-4 0  9992
2 30077  98.7488 269.2150 0020930 205.6288 222.2093 14.07113807  9879

Suivez FENGYUN 1C DEB en temps réel avec AllMySat

Download on the App Store